Hailey, ID

8:59 PM MST on December 13, 2019 (GMT -0700)
Friedman Memorial

Weather History for KSUN - November, 2019

Change the Weather History Date:

Wednesday, November 13, 2019

  Actual Average Record
Temperature  
Mean Temperature 40 °F -  
Max Temperature 51 °F 43 °F 68 °F (1999)
Min Temperature 30 °F 23 °F 10 °F (2014)
Degree Days  
Heating Degree Days 24    
Moisture  
Dew Point 26 °F    
Average Humidity 69    
Maximum Humidity 87    
Minimum Humidity 43    
Precipitation  
Precipitation 0.00 in - - ()
Sea Level Pressure  
Sea Level Pressure 30.14 in    
Wind  
Wind Speed 8 mph ()    
Max Wind Speed 12 mph    
Max Gust Speed -    
Visibility 10.0 miles    
Events      
Averages and records for this station are not official NWS values.
T = Trace of Precipitation, MM = Missing Value Source: Averaged Metar Reports

Daily Weather History Graph

Daily Weather History Graph

Search for Another Location

Airport or City:

Astronomy

Nov. 13, 2019 Rise Set
Actual Time 7:28 AM MST 5:14 PM MST
Civil Twilight 6:57 AM MST 5:45 PM MST
Nautical Twilight 6:22 AM MST 6:19 PM MST
Astronomical Twilight 5:49 AM MST 6:53 PM MST
Moon 6:19 PM MST (11/13) 8:26 AM MST (11/13)
Length of Visible Light 10h 47m
Length of Day
9h 46m
Full, 98% of the Moon is Illuminated
Nov 13
Full
Nov 19
Last Quarter
Nov 26
New
Dec 3
First Quarter
Dec 11
Full

Hourly Weather History & Observations

Time (MST) Temp. Windchill Dew Point Humidity Pressure Visibility Wind Dir Wind Speed Gust Speed Precip Events Conditions
12:15 AM 32.0 °F 24.2 °F 19.4 °F 60% 30.10 in 10.0 mi NNW 9.2 mph - N/A   Clear
12:35 AM 32.0 °F 24.2 °F 19.4 °F 60% 30.11 in 10.0 mi NW 9.2 mph - N/A   Clear
12:55 AM 32.0 °F 23.6 °F 19.4 °F 60% 30.11 in 10.0 mi NW 10.4 mph - N/A   Clear
1:15 AM 32.0 °F 23.6 °F 21.2 °F 64% 30.12 in 10.0 mi NW 10.4 mph - N/A   Clear
1:35 AM 32.0 °F 24.2 °F 21.2 °F 64% 30.11 in 10.0 mi NW 9.2 mph - N/A   Clear
1:55 AM 32.0 °F 24.8 °F 23.0 °F 69% 30.12 in 10.0 mi NW 8.1 mph - N/A   Clear
2:15 AM 32.0 °F 24.2 °F 23.0 °F 69% 30.12 in 10.0 mi WNW 9.2 mph - N/A   Clear
2:35 AM 32.0 °F 24.2 °F 23.0 °F 69% 30.12 in 10.0 mi WNW 9.2 mph - N/A   Clear
3:15 AM 32.0 °F 26.4 °F 23.0 °F 69% 30.12 in 10.0 mi NW 5.8 mph - N/A   Clear
3:35 AM 32.0 °F 24.8 °F 24.8 °F 75% 30.12 in 10.0 mi WNW 8.1 mph - N/A   Clear
3:55 AM 32.0 °F 23.6 °F 24.8 °F 75% 30.12 in 10.0 mi NW 10.4 mph - N/A   Clear
4:15 AM 32.0 °F 23.0 °F 26.6 °F 80% 30.12 in 10.0 mi NW 11.5 mph - N/A   Clear
4:35 AM 32.0 °F 23.6 °F 26.6 °F 80% 30.13 in 10.0 mi NW 10.4 mph - N/A   Clear
4:55 AM 32.0 °F 24.2 °F 26.6 °F 80% 30.13 in 10.0 mi NW 9.2 mph - N/A   Clear
5:15 AM 32.0 °F 23.6 °F 26.6 °F 80% 30.14 in 10.0 mi NW 10.4 mph - N/A   Clear
5:35 AM 32.0 °F 23.6 °F 26.6 °F 80% 30.14 in 10.0 mi NW 10.4 mph - N/A   Clear
6:47 AM 30.2 °F 23.4 °F 24.8 °F 80% 30.15 in 10.0 mi West 6.9 mph - N/A   Partly Cloudy
7:47 AM 30.2 °F 21.9 °F 24.8 °F 80% 30.16 in 10.0 mi WNW 9.2 mph - N/A   Partly Cloudy
8:47 AM 33.8 °F 26.4 °F 26.6 °F 75% 30.18 in 10.0 mi WNW 9.2 mph - N/A   Partly Cloudy
9:47 AM 39.2 °F 34.2 °F 26.6 °F 61% 30.17 in 10.0 mi NW 6.9 mph - N/A   Partly Cloudy
10:47 AM 42.8 °F - 26.6 °F 53% 30.18 in 10.0 mi Calm Calm - N/A   Partly Cloudy
11:47 AM 48.2 °F - 30.2 °F 50% 30.16 in 10.0 mi SE 8.1 mph - N/A   Partly Cloudy
12:52 PM 50.0 °F - 28.4 °F 43% 30.13 in 10.0 mi SE 9.2 mph - N/A   Clear
1:52 PM 51.8 °F - 30.2 °F 44% 30.13 in 10.0 mi ESE 9.2 mph - N/A   Partly Cloudy
2:50 PM 51.8 °F - 32.0 °F 47% 30.11 in 10.0 mi ESE 9.2 mph - N/A   Partly Cloudy
3:50 PM 51.8 °F - 32.0 °F 47% 30.11 in 10.0 mi ESE 11.5 mph - N/A   Clear
4:47 PM 46.4 °F 43.5 °F 30.2 °F 53% 30.11 in 10.0 mi SE 5.8 mph - N/A   Clear
5:51 PM 42.8 °F 38.6 °F 30.2 °F 61% 30.12 in 10.0 mi East 6.9 mph - N/A   Clear
6:51 PM 39.2 °F 35.9 °F 28.4 °F 65% 30.14 in 10.0 mi NNW 4.6 mph - N/A   Clear
7:47 PM 35.6 °F 28.6 °F 28.4 °F 75% 30.15 in 10.0 mi WNW 9.2 mph - N/A   Clear
8:56 PM 37.4 °F 33.8 °F 28.4 °F 70% 30.17 in 10.0 mi NW 4.6 mph - N/A   Clear
9:47 PM 35.6 °F 28.6 °F 28.4 °F 75% 30.17 in 10.0 mi WNW 9.2 mph - N/A   Clear
10:15 PM 33.8 °F 27.7 °F 28.4 °F 81% 30.19 in 10.0 mi NW 6.9 mph - N/A   Clear
10:35 PM 32.0 °F 24.2 °F 28.4 °F 87% 30.19 in 10.0 mi WNW 9.2 mph - N/A   Clear
10:47 PM 33.8 °F 26.4 °F 28.4 °F 81% 30.19 in 10.0 mi WNW 9.2 mph - N/A   Clear
10:55 PM 33.8 °F 27.0 °F 28.4 °F 81% 30.20 in 10.0 mi NW 8.1 mph - N/A   Clear
11:15 PM 33.8 °F 27.0 °F 28.4 °F 81% 30.20 in 10.0 mi WNW 8.1 mph - N/A   Clear
11:35 PM 32.0 °F 23.6 °F 28.4 °F 87% 30.20 in 10.0 mi NW 10.4 mph - N/A   Clear
11:55 PM 32.0 °F 24.8 °F 28.4 °F 87% 30.21 in 10.0 mi NW 8.1 mph - N/A   Clear